When you browse on this site, cookies collect data to enhance your experience and personalize the content and advertising you see.
Visit our Privacy Policy to learn more. By continuing to use the site, you agree to this use of cookies and data.
  • In Hungary
  • List of Countries
  • For 7 days
  • Water Temperature
  • Satellite Maps
  • Weather Map
  • News
  • Weather Widgets
  • user-avatar
    Login

    Hourly Weather Madurai

    Today, 23 July, Tuesday

    Time Temperature Precipitation Wind Pressure Humidity
    00:00 +27°C° 0 mm 1 mps 742 mmHg 83%
    01:00 +27°C° 0 mm 1 mps 742 mmHg 82%
    02:00 +27°C° 0 mm 1 mps 741 mmHg 82%
    03:00 +27°C° 0 mm 1 mps 741 mmHg 81%
    04:00 +27°C° 0 mm 1 mps 741 mmHg 81%
    05:00 +25°C° 0 mm 0 mps 741 mmHg 81%
    06:00 +28°C° 0 mm 1 mps 742 mmHg 78%
    07:00 +28°C° 0 mm 1 mps 742 mmHg 76%
    08:00 +28°C° 0 mm 1 mps 743 mmHg 73%
    09:00 +29°C° 0 mm 1 mps 743 mmHg 68%
    10:00 +30°C° 0 mm 1 mps 743 mmHg 63%
    11:00 +31°C° 0 mm 1 mps 743 mmHg 58%
    12:00 +31°C° 0 mm 1 mps 742 mmHg 55%
    13:00 +32°C° 0 mm 1 mps 742 mmHg 53%
    14:00 +33°C° 0 mm 1 mps 741 mmHg 51%
    15:00 +32°C° 0 mm 1 mps 741 mmHg 53%
    16:00 +32°C° 0 mm 1 mps 741 mmHg 54%
    17:00 +32°C° 0 mm 1 mps 741 mmHg 56%
    18:00 +31°C° 0 mm 2 mps 741 mmHg 59%
    19:00 +31°C° 0 mm 2 mps 742 mmHg 61%
    20:00 +30°C° 0 mm 3 mps 742 mmHg 64%
    21:00 +29°C° 0 mm 3 mps 743 mmHg 66%
    22:00 +29°C° 0 mm 2 mps 743 mmHg 67%
    23:00 +29°C° 0 mm 2 mps 743 mmHg 69%

    Tomorrow, 24 July, Wednesday

    Time Temperature Precipitation Wind Pressure Humidity
    00:00 +28°C° 0 mm 2 mps 742 mmHg 70%
    01:00 +28°C° 0 mm 2 mps 742 mmHg 70%
    02:00 +28°C° 0 mm 1 mps 742 mmHg 71%
    03:00 +28°C° 0 mm 1 mps 742 mmHg 71%
    04:00 +28°C° 0 mm 1 mps 742 mmHg 71%
    05:00 +28°C° 0 mm 1 mps 742 mmHg 72%
    06:00 +28°C° 0 mm 1 mps 742 mmHg 70%
    07:00 +29°C° 0 mm 1 mps 743 mmHg 68%
    08:00 +29°C° 0 mm 2 mps 743 mmHg 66%
    09:00 +30°C° 0 mm 1 mps 743 mmHg 64%
    10:00 +30°C° 0 mm 1 mps 743 mmHg 61%
    11:00 +31°C° 0 mm 1 mps 743 mmHg 59%
    12:00 +32°C° 0 mm 1 mps 743 mmHg 56%
    13:00 +33°C° 0 mm 1 mps 742 mmHg 52%
    14:00 +34°C° 0 mm 1 mps 741 mmHg 49%
    15:00 +34°C° 0 mm 1 mps 741 mmHg 49%
    16:00 +35°C° 0 mm 2 mps 741 mmHg 49%
    17:00 +35°C° 0 mm 2 mps 741 mmHg 49%
    18:00 +34°C° 0 mm 2 mps 742 mmHg 53%
    19:00 +32°C° 0 mm 2 mps 742 mmHg 57%
    20:00 +31°C° 0 mm 1 mps 743 mmHg 61%
    21:00 +31°C° 0 mm 2 mps 743 mmHg 62%
    22:00 +30°C° 0 mm 2 mps 744 mmHg 63%
    23:00 +30°C° 0 mm 2 mps 744 mmHg 64%

    Day after tomorrow, 25 July, Thursday

    Time Temperature Precipitation Wind Pressure Humidity
    00:00 +29°C° 0 mm 2 mps 743 mmHg 65%
    01:00 +29°C° 0 mm 2 mps 743 mmHg 67%
    02:00 +29°C° 0 mm 2 mps 742 mmHg 68%
    03:00 +28°C° 0 mm 2 mps 743 mmHg 69%
    04:00 +28°C° 0 mm 2 mps 743 mmHg 70%
    05:00 +28°C° 0 mm 2 mps 743 mmHg 72%
    06:00 +29°C° 0 mm 2 mps 743 mmHg 68%
    07:00 +30°C° 0 mm 1 mps 744 mmHg 65%
    08:00 +30°C° 0 mm 1 mps 744 mmHg 61%
    09:00 +32°C° 0 mm 1 mps 744 mmHg 57%
    10:00 +34°C° 0 mm 2 mps 744 mmHg 52%
    11:00 +35°C° 0 mm 2 mps 745 mmHg 48%
    12:00 +36°C° 0 mm 2 mps 744 mmHg 46%
    13:00 +36°C° 0 mm 2 mps 743 mmHg 44%
    14:00 +36°C° 0 mm 1 mps 742 mmHg 42%
    15:00 +37°C° 0 mm 2 mps 742 mmHg 44%
    16:00 +36°C° 0 mm 2 mps 742 mmHg 46%
    17:00 +36°C° 0 mm 3 mps 742 mmHg 47%
    18:00 +35°C° 0.2 mm 3 mps 742 mmHg 51%
    19:00 +34°C° 0.2 mm 3 mps 743 mmHg 55%
    20:00 +32°C° 0.2 mm 2 mps 744 mmHg 59%
    21:00 +31°C° 0.1 mm 3 mps 744 mmHg 60%
    22:00 +31°C° 0.1 mm 3 mps 744 mmHg 61%
    23:00 +30°C° 0.1 mm 3 mps 744 mmHg 62%

    26 July, Friday

    Time Temperature Precipitation Wind Pressure Humidity
    00:00 +30°C° 0 mm 3 mps 744 mmHg 64%
    01:00 +30°C° 0 mm 2 mps 743 mmHg 65%
    02:00 +29°C° 0 mm 2 mps 743 mmHg 66%
    03:00 +29°C° 0 mm 2 mps 743 mmHg 67%
    04:00 +29°C° 0 mm 1 mps 743 mmHg 68%
    05:00 +29°C° 0 mm 1 mps 743 mmHg 68%
    06:00 +29°C° 0 mm 1 mps 743 mmHg 65%
    07:00 +30°C° 0 mm 1 mps 744 mmHg 62%
    08:00 +31°C° 0 mm 1 mps 745 mmHg 59%
    09:00 +32°C° 0 mm 1 mps 744 mmHg 55%
    10:00 +34°C° 0 mm 2 mps 744 mmHg 51%
    11:00 +35°C° 0 mm 2 mps 744 mmHg 48%
    12:00 +35°C° 0 mm 2 mps 744 mmHg 46%
    13:00 +36°C° 0 mm 2 mps 743 mmHg 43%
    14:00 +37°C° 0 mm 2 mps 742 mmHg 41%
    15:00 +36°C° 0.1 mm 2 mps 742 mmHg 43%
    16:00 +36°C° 0.1 mm 3 mps 742 mmHg 45%
    17:00 +35°C° 0.1 mm 3 mps 742 mmHg 47%
    18:00 +34°C° 0.7 mm 3 mps 743 mmHg 52%
    19:00 +33°C° 0.7 mm 3 mps 743 mmHg 57%
    20:00 +31°C° 0.7 mm 3 mps 744 mmHg 62%
    21:00 +31°C° 0.7 mm 3 mps 744 mmHg 64%
    22:00 +30°C° 0.7 mm 3 mps 744 mmHg 67%
    23:00 +29°C° 0.7 mm 3 mps 744 mmHg 69%

    27 July, Saturday

    Time Temperature Precipitation Wind Pressure Humidity
    00:00 +29°C° 0 mm 3 mps 744 mmHg 68%
    01:00 +29°C° 0 mm 2 mps 743 mmHg 68%
    02:00 +29°C° 0 mm 2 mps 743 mmHg 67%
    03:00 +29°C° 0.5 mm 1 mps 743 mmHg 68%
    04:00 +28°C° 0.5 mm 1 mps 743 mmHg 70%
    05:00 +26°C° 0.5 mm 0 mps 743 mmHg 71%
    06:00 +28°C° 0.8 mm 1 mps 744 mmHg 70%
    07:00 +29°C° 0.8 mm 1 mps 744 mmHg 70%
    08:00 +29°C° 0.8 mm 1 mps 745 mmHg 69%
    09:00 +30°C° 0 mm 1 mps 745 mmHg 65%
    10:00 +31°C° 0 mm 1 mps 745 mmHg 62%
    11:00 +31°C° 0 mm 2 mps 744 mmHg 58%
    12:00 +32°C° 0 mm 2 mps 744 mmHg 57%
    13:00 +32°C° 0 mm 2 mps 743 mmHg 56%
    14:00 +34°C° 0 mm 3 mps 743 mmHg 55%
    15:00 +34°C° 0 mm 3 mps 743 mmHg 55%
    16:00 +34°C° 0 mm 2 mps 742 mmHg 54%
    17:00 +34°C° 0 mm 2 mps 742 mmHg 53%
    18:00 +32°C° 0.2 mm 2 mps 743 mmHg 58%
    19:00 +31°C° 0.2 mm 2 mps 744 mmHg 63%
    20:00 +30°C° 0.2 mm 2 mps 744 mmHg 68%
    21:00 +30°C° 0 mm 2 mps 744 mmHg 71%
    22:00 +29°C° 0 mm 1 mps 744 mmHg 74%
    23:00 +29°C° 0 mm 1 mps 744 mmHg 77%

    28 July, Sunday

    Time Temperature Precipitation Wind Pressure Humidity
    00:00 +27°C° 0 mm 0 mps 744 mmHg 77%
    01:00 +26°C° 0 mm 0 mps 743 mmHg 78%
    02:00 +26°C° 0 mm 0 mps 743 mmHg 78%
    03:00 +26°C° 0 mm 0 mps 743 mmHg 77%
    04:00 +28°C° 0 mm 1 mps 743 mmHg 77%
    05:00 +28°C° 0 mm 1 mps 743 mmHg 76%
    06:00 +28°C° 0 mm 1 mps 744 mmHg 71%
    07:00 +29°C° 0 mm 1 mps 744 mmHg 67%
    08:00 +30°C° 0 mm 1 mps 744 mmHg 62%
    09:00 +31°C° 0 mm 1 mps 744 mmHg 57%
    10:00 +32°C° 0 mm 1 mps 744 mmHg 52%
    11:00 +33°C° 0 mm 1 mps 744 mmHg 47%
    12:00 +34°C° 0 mm 1 mps 743 mmHg 44%
    13:00 +35°C° 0 mm 1 mps 743 mmHg 41%
    14:00 +36°C° 0 mm 1 mps 742 mmHg 37%
    15:00 +36°C° 0 mm 1 mps 742 mmHg 38%
    16:00 +37°C° 0 mm 2 mps 742 mmHg 38%
    17:00 +37°C° 0 mm 2 mps 742 mmHg 39%
    18:00 +35°C° 0.1 mm 2 mps 743 mmHg 46%
    19:00 +34°C° 0.1 mm 2 mps 743 mmHg 53%
    20:00 +31°C° 0.1 mm 3 mps 744 mmHg 60%
    21:00 +31°C° 0 mm 2 mps 744 mmHg 61%
    22:00 +31°C° 0 mm 2 mps 744 mmHg 61%
    23:00 +31°C° 0 mm 1 mps 744 mmHg 62%
    Show more